EW1669 Weather Reports


time (UTC)temp
F
wind
direction
speed
knots
gust
knots
rain 1hr
in
rain 24hr
in
rain mn
in
humidity
%
barometer
mb
20220524033524 65 100 0.9 8.7 0.02 1.16 1.16 97 862.2
20220524033018 65 95 0.0 8.7 0.02 1.16 1.16 97 862.2
20220524032513 65 131 0.0 7.0 0.02 1.16 1.16 97 862.6
20220524032003 65 133 0.0 1.7 0.02 1.16 1.16 97 862.9
20220524031456 65 36 0.0 0.0 0.03 1.16 1.16 97 862.6
20220524030953 65 52 0.0 4.3 0.04 1.16 1.16 97 862.9
20220524030443 65 107 0.0 4.3 0.05 1.16 1.16 97 862.9
20220524025937 65 65 0.0 8.7 0.06 1.16 1.16 97 862.6
20220524025432 66 116 0.0 8.7 0.07 1.16 1.16 96 862.9
20220524024926 67 124 0.0 7.0 0.10 1.16 1.16 96 862.6
20220524024420 68 34 0.0 4.3 0.18 1.14 1.14 97 862.9
20220524023915 69 42 0.0 4.3 0.46 1.14 1.14 96 863.9
20220524023408 68 105 0.0 7.0 0.55 1.14 1.14 96 863.9
20220524022903 68 122 0.0 7.0 0.65 1.14 1.14 96 863.9
20220524022356 67 107 0.0 1.7 0.65 1.14 1.14 96 863.9
20220524021853 66 43 0.0 0.0 0.68 1.14 1.14 96 863.9
20220524021345 65 64 0.0 1.7 0.67 1.13 1.13 95 864.2
20220524020840 64 76 0.0 1.7 0.65 1.11 1.12 96 864.6
20220524020331 64 133 0.0 11.3 0.65 1.11 1.11 97 864.6
20220524015826 63 148 0.0 13.0 0.67 1.09 1.09 96 864.2
20220524015321 63 103 0.0 13.0 0.67 1.09 1.09 95 863.9
20220524014814 63 106 0.0 0.0 0.63 1.05 1.05 94 863.6
20220524014312 63 63 0.0 0.0 0.49 0.91 0.93 93 863.6
20220524013804 63 53 0.0 13.0 0.24 0.66 0.67 93 863.9
20220524013256 63 285 0.0 13.0 0.16 0.58 0.58 92 863.6
20220524012754 64 127 1.7 7.0 0.07 0.49 0.49 90 862.2
20220524012244 65 52 0.0 7.0 0.07 0.49 0.49 90 861.9
20220524011740 66 137 0.0 8.7 0.04 0.46 0.46 88 862.2
20220524011231 67 123 0.0 8.7 0.04 0.46 0.46 84 861.9
20220524010726 68 119 0.0 7.0 0.04 0.46 0.46 78 861.2
20220524010219 68 94 0.0 8.7 0.03 0.45 0.45 70 861.5
20220524005718 69 131 4.3 8.7 0.00 0.42 0.42 70 861.5
20220524005210 69 72 0.0 8.7 0.00 0.42 0.42 71 861.2
20220524004702 69 132 0.0 8.7 0.00 0.42 0.42 64 861.2
20220524004157 70 71 0.9 13.0 0.00 0.42 0.42 66 861.2
20220524003654 70 110 1.7 13.0 0.00 0.42 0.42 68 861.2
20220524003146 71 110 0.0 17.4 0.00 0.42 0.42 68 861.5
20220524002638 71 136 1.7 17.4 0.00 0.42 0.42 64 861.2
20220524002131 71 151 4.3 14.8 0.00 0.42 0.42 61 861.5
20220524001625 71 49 0.0 7.0 0.00 0.42 0.42 61 861.2
20220524001118 71 118 0.0 7.0 0.00 0.42 0.42 59 861.2
20220524000613 71 132 0.0 8.7 0.01 0.42 0.42 61 861.2
20220524000106 71 147 0.0 8.7 0.02 0.42 0.42 63 861.2
20220523235606 71 104 0.0 1.7 0.02 0.42 0.42 68 861.2
20220523235050 70 68 0.0 1.7 0.02 0.42 0.42 67 861.5
20220523234545 69 32 0.0 4.3 0.02 0.42 0.42 63 861.2
20220523234042 68 113 0.0 4.3 0.02 0.42 0.42 62 861.5
20220523233533 66 186 0.0 4.3 0.02 0.42 0.42 87 861.2
20220523233027 65 155 0.0 4.3 0.11 0.42 0.42 93 861.2
20220523232518 65 177 0.0 0.0 0.22 0.42 0.42 95 860.9
20220523232012 65 172 0.0 0.0 0.23 0.42 0.42 96 860.9
20220523231508 65 256 0.0 0.0 0.27 0.42 0.42 95 860.9
20220523231004 65 207 0.0 0.0 0.32 0.41 0.42 95 861.2
20220523230457 64 175 0.0 0.0 0.39 0.41 0.41 95 861.2
20220523225953 63 277 0.0 0.0 0.40 0.40 0.40 96 861.5
20220523225443 62 263 0.0 0.0 0.40 0.40 0.40 95 861.5
20220523224937 62 128 0.0 0.0 0.40 0.40 0.40 94 861.9
20220523224429 62 113 0.0 0.0 0.40 0.40 0.40 91 861.9
20220523223924 62 335 0.0 4.3 0.40 0.40 0.40 90 861.9
20220523223417 64 218 0.0 4.3 0.40 0.40 0.40 87 862.6
20220523222913 67 238 0.0 0.0 0.28 0.28 0.28 81 862.6
20220523222405 70 153 0.0 0.0 0.20 0.20 0.20 80 862.2
20220523221901 73 194 0.0 7.0 0.19 0.19 0.19 78 862.6
20220523221357 75 259 0.0 11.3 0.14 0.14 0.14 71 862.6
20220523220847 78 241 0.0 11.3 0.07 0.07 0.07 58 862.6
20220523220341 79 195 0.0 11.3 0.00 0.00 0.01 34 862.6
20220523215835 79 150 0.0 13.0 0.00 0.00 0.00 32 861.9
20220523215331 79 161 0.9 13.0 0.00 0.00 0.00 30 862.6
20220523214823 80 146 0.0 11.3 0.00 0.00 0.00 31 862.6
20220523214316 80 147 0.0 11.3 0.00 0.00 0.00 32 862.9
20220523213814 80 182 4.3 7.0 0.00 0.00 0.00 31 862.9
20220523213308 80 146 0.9 7.0 0.00 0.00 0.00 30 863.6
20220523212759 81 155 0.0 8.7 0.00 0.00 0.00 28 863.6
20220523212256 81 157 0.0 8.7 0.00 0.00 0.00 30 863.6
20220523211747 81 185 0.0 8.7 0.00 0.00 0.00 30 863.6
20220523211241 82 159 1.7 8.7 0.00 0.00 0.00 28 863.6
20220523210734 82 267 0.9 8.7 0.00 0.00 0.00 29 863.9
20220523210230 82 163 0.0 8.7 0.00 0.00 0.00 28 863.9
20220523205723 82 189 0.0 7.0 0.00 0.00 0.00 29 864.2
20220523205217 81 164 1.7 8.7 0.00 0.00 0.00 29 864.2
20220523204712 81 144 0.9 8.7 0.00 0.00 0.00 29 864.2
20220523204208 80 261 0.0 7.0 0.00 0.00 0.00 29 864.2
20220523203704 80 174 0.9 8.7 0.00 0.00 0.00 30 864.2
20220523203154 79 225 0.0 8.7 0.00 0.00 0.00 29 864.6
20220523202647 79 162 0.0 8.7 0.00 0.00 0.00 30 864.6
20220523202143 78 225 0.0 8.7 0.00 0.00 0.00 30 864.9
20220523201639 78 175 0.0 11.3 0.00 0.00 0.00 31 864.9
20220523201132 78 245 0.0 11.3 0.00 0.00 0.00 32 865.3
20220523200622 77 197 0.0 8.7 0.00 0.00 0.00 33 865.3
20220523200118 77 169 0.0 7.0 0.00 0.00 0.00 33 865.3
20220523195610 77 161 0.0 7.0 0.00 0.00 0.00 33 865.3
20220523195104 76 177 0.0 4.3 0.00 0.00 0.00 33 865.6
20220523194558 76 153 0.0 4.3 0.00 0.00 0.00 33 865.9
20220523194056 76 198 0.0 7.0 0.00 0.00 0.00 35 865.6
20220523193547 76 153 0.0 8.7 0.00 0.00 0.00 36 865.9
20220523193043 76 169 0.0 8.7 0.00 0.00 0.00 37 865.9
20220523192533 76 171 0.0 11.3 0.00 0.00 0.00 36 866.3
20220523192026 75 189 0.0 11.3 0.00 0.00 0.00 37 865.9
20220523191521 75 167 0.0 8.7 0.00 0.00 0.00 37 866.3
20220523191013 75 165 0.0 7.0 0.00 0.00 0.00 37 866.3
20220523190513 75 180 0.9 8.7 0.00 0.00 0.00 39 866.3
20220523190001 74 219 0.0 11.3 0.00 0.00 0.00 40 866.6
20220523185454 74 162 2.6 11.3 0.00 0.00 0.00 41 866.6
20220523184946 74 155 0.0 11.3 0.00 0.00 0.00 42 866.6
20220523184440 74 164 0.0 11.3 0.00 0.00 0.00 42 866.6
20220523183935 73 160 0.9 11.3 0.00 0.00 0.00 43 867.0
20220523183431 73 167 1.7 8.7 0.00 0.00 0.00 44 867.3
20220523182920 73 240 0.9 8.7 0.00 0.00 0.00 43 867.0
20220523182414 73 138 0.9 8.7 0.00 0.00 0.00 43 867.0
20220523181908 73 172 0.0 8.7 0.00 0.00 0.00 43 867.0
20220523181405 73 164 0.0 8.7 0.00 0.00 0.00 43 867.6
20220523180858 73 224 0.0 8.7 0.00 0.00 0.00 42 867.3
20220523180353 72 157 2.6 7.0 0.00 0.00 0.00 43 867.6
20220523175846 72 237 0.9 7.0 0.00 0.00 0.00 43 867.6
20220523175341 72 166 0.0 8.7 0.00 0.00 0.00 48 867.6
20220523174833 71 162 0.0 8.7 0.00 0.00 0.00 46 867.6
20220523174327 71 155 0.0 4.3 0.00 0.00 0.00 45 868.0
20220523173823 71 218 0.0 4.3 0.00 0.00 0.00 46 868.0
20220523173317 70 160 1.7 8.7 0.00 0.00 0.00 49 868.0
20220523172808 70 229 0.0 8.7 0.00 0.00 0.00 50 868.0
20220523172301 69 160 3.5 8.7 0.00 0.00 0.00 50 868.0
20220523171756 69 137 1.7 8.7 0.00 0.00 0.00 50 868.0
20220523171249 69 155 0.0 8.7 0.00 0.00 0.00 51 868.3
20220523170744 68 192 0.9 4.3 0.00 0.00 0.00 52 868.3
20220523170238 68 172 0.9 7.0 0.00 0.00 0.00 52 868.3
20220523165732 68 186 0.0 13.0 0.00 0.00 0.00 52 868.3
20220523165230 67 217 0.0 7.0 0.00 0.00 0.00 52 868.3
20220523164720 67 218 0.0 7.0 0.00 0.00 0.00 54 868.6
20220523164216 66 145 2.6 7.0 0.00 0.00 0.00 52 868.6
20220523163707 66 234 0.0 7.0 0.00 0.00 0.00 54 868.6
20220523163203 65 159 0.0 8.7 0.00 0.00 0.00 54 868.6
20220523162656 65 155 0.0 8.7 0.00 0.00 0.00 55 868.6
20220523162149 65 230 0.0 7.0 0.00 0.00 0.00 56 868.6
20220523161644 64 229 0.0 7.0 0.00 0.00 0.00 56 868.6
20220523161146 64 205 0.0 7.0 0.00 0.00 0.00 56 869.0
20220523160641 64 166 2.6 7.0 0.00 0.00 0.00 55 869.0
20220523160136 64 165 0.0 11.3 0.00 0.00 0.00 57 868.6
20220523155630 63 143 0.0 11.3 0.00 0.00 0.00 56 868.6
20220523155052 63 179 0.0 7.0 0.00 0.00 0.00 56 869.0
20220523154545 63 169 0.0 7.0 0.00 0.00 0.00 56 869.3
20220523154042 62 176 1.7 7.0 0.00 0.00 0.00 56 869.3
20220523153533 62 177 0.0 4.3 0.00 0.00 0.00 57 869.3
20220523153030 62 158 0.0 7.0 0.00 0.00 0.00 57 869.7
20220523152522 61 163 0.0 7.0 0.00 0.00 0.00 59 869.7
20220523152017 61 158 2.6 7.0 0.00 0.00 0.00 57 870.0
20220523151510 61 169 0.0 11.3 0.00 0.00 0.00 59 869.7
20220523151004 60 147 0.9 11.3 0.00 0.00 0.00 59 869.7
20220523150458 60 159 2.6 7.0 0.00 0.00 0.00 59 870.0
20220523145953 59 192 0.0 7.0 0.00 0.00 0.00 61 869.7
20220523145447 59 161 0.0 7.0 0.00 0.00 0.00 60 870.3
20220523144942 59 82 0.9 13.0 0.00 0.00 0.00 61 870.0
20220523144436 58 220 0.0 13.0 0.00 0.00 0.00 61 870.0
20220523143931 58 197 1.7 11.3 0.00 0.00 0.00 62 870.0
20220523143423 57 162 0.0 11.3 0.00 0.00 0.00 61 870.0
20220523142914 57 181 5.2 8.7 0.00 0.00 0.00 62 870.0
20220523142409 57 162 0.9 8.7 0.00 0.00 0.00 62 870.3
20220523141903 57 182 0.0 8.7 0.00 0.00 0.00 63 870.3
20220523141400 56 150 5.2 14.8 0.00 0.00 0.00 65 870.0
20220523140854 56 161 8.7 14.8 0.00 0.00 0.00 64 870.3
20220523140346 56 172 0.0 11.3 0.00 0.00 0.00 63 870.3
20220523135840 56 166 0.0 7.0 0.00 0.00 0.00 64 870.3
20220523135334 56 127 0.9 7.0 0.00 0.00 0.00 64 870.3
20220523134823 55 163 0.0 7.0 0.00 0.00 0.00 64 870.3
20220523134320 55 134 0.0 8.7 0.00 0.00 0.00 65 870.7
20220523133811 55 104 0.0 8.7 0.00 0.00 0.00 64 870.7
20220523133304 55 133 0.0 7.0 0.00 0.00 0.00 64 870.3
20220523132758 55 148 0.0 7.0 0.00 0.00 0.00 63 870.7
20220523132253 55 141 0.0 8.7 0.00 0.00 0.00 63 870.3
20220523131746 55 160 0.0 8.7 0.00 0.00 0.00 62 870.7
20220523131243 55 146 0.0 7.0 0.00 0.00 0.00 61 870.3
20220523130736 55 151 0.0 7.0 0.00 0.00 0.00 62 870.7
20220523130231 55 135 0.0 7.0 0.00 0.00 0.00 61 870.3
20220523125723 54 145 0.0 7.0 0.00 0.00 0.00 61 870.7
20220523125220 54 153 0.0 4.3 0.00 0.00 0.00 61 870.3
20220523124711 54 152 1.7 4.3 0.00 0.00 0.00 62 870.7
20220523124203 54 131 0.0 7.0 0.00 0.00 0.00 61 870.7
20220523123658 54 165 0.0 7.0 0.00 0.00 0.00 61 870.7
20220523123152 54 136 0.0 1.7 0.00 0.00 0.00 60 871.0
20220523122647 54 144 0.0 1.7 0.00 0.00 0.00 59 870.7
20220523122138 54 110 0.0 4.3 0.00 0.00 0.00 58 870.7
20220523121633 54 132 0.0 4.3 0.00 0.00 0.00 57 870.7
20220523121128 54 154 0.0 1.7 0.00 0.00 0.00 55 870.7
20220523120622 54 127 0.0 1.7 0.00 0.00 0.00 53 870.3
20220523120115 54 131 0.0 1.7 0.00 0.00 0.00 53 870.7
20220523115606 54 129 0.0 1.7 0.00 0.00 0.00 52 870.3
20220523115102 54 144 0.0 0.0 0.00 0.00 0.00 50 870.3
20220523114556 54 147 0.0 0.0 0.00 0.00 0.00 50 870.0
20220523114053 54 151 0.0 0.0 0.00 0.00 0.00 49 870.3
20220523113544 54 113 0.0 0.0 0.00 0.00 0.00 48 870.3
20220523113038 54 102 0.0 1.7 0.00 0.00 0.00 48 870.3
20220523112532 54 154 0.0 1.7 0.00 0.00 0.00 48 870.0
20220523112027 54 145 0.0 0.0 0.00 0.00 0.00 48 870.3
20220523111525 54 143 0.0 0.0 0.00 0.00 0.00 47 870.3
20220523111016 54 143 0.0 0.0 0.00 0.00 0.00 46 870.3
20220523110509 54 133 0.0 1.7 0.00 0.00 0.00 45 870.3
20220523110006 54 155 0.0 1.7 0.00 0.00 0.00 45 870.3
20220523105501 54 128 0.0 1.7 0.00 0.00 0.00 45 870.3
20220523104952 54 142 0.0 1.7 0.00 0.00 0.00 44 870.3
20220523104449 54 160 0.0 0.0 0.00 0.00 0.00 44 870.3
20220523103938 54 168 0.0 0.0 0.00 0.00 0.00 44 870.3
20220523103434 54 165 0.0 0.0 0.00 0.00 0.00 44 870.3
20220523102930 54 150 0.0 0.0 0.00 0.00 0.00 44 870.3
20220523102422 54 128 0.0 0.0 0.00 0.00 0.00 44 870.3
20220523101918 54 214 0.0 0.0 0.00 0.00 0.00 45 870.3
20220523101410 54 142 0.0 0.0 0.00 0.00 0.00 45 870.7
20220523100908 55 168 0.0 0.0 0.00 0.00 0.00 44 870.3
20220523100400 55 159 0.0 0.0 0.00 0.00 0.00 44 870.3
20220523095854 55 163 0.0 0.0 0.00 0.00 0.00 43 870.3
20220523095348 55 149 0.0 4.3 0.00 0.00 0.00 43 870.3
20220523094841 55 142 0.0 4.3 0.00 0.00 0.00 43 870.3
20220523094336 55 143 0.0 1.7 0.00 0.00 0.00 43 870.3
20220523093830 56 147 0.0 0.0 0.00 0.00 0.00 43 870.3
20220523093327 56 163 0.0 0.0 0.00 0.00 0.00 43 870.0
20220523092818 56 170 0.0 0.0 0.00 0.00 0.00 43 870.3
20220523092312 56 230 0.0 1.7 0.00 0.00 0.00 43 870.3
20220523091807 56 151 0.0 1.7 0.00 0.00 0.00 43 870.3
20220523091300 56 137 0.0 0.0 0.00 0.00 0.00 44 870.3
20220523090757 57 141 0.0 0.0 0.00 0.00 0.00 44 870.3
20220523090247 57 152 0.0 0.0 0.00 0.00 0.00 44 870.0
20220523085742 57 155 0.0 0.0 0.00 0.00 0.00 44 870.7
20220523085237 58 163 0.0 0.0 0.00 0.00 0.00 43 870.3
20220523084734 58 153 0.0 0.0 0.00 0.00 0.00 42 870.7
20220523084227 58 151 0.0 0.0 0.00 0.00 0.00 42 870.7
20220523083719 58 154 0.0 1.7 0.00 0.00 0.00 42 871.0
20220523083213 59 150 0.0 1.7 0.00 0.00 0.00 42 870.7
20220523082707 59 217 0.0 1.7 0.00 0.00 0.00 42 870.7
20220523082201 59 191 0.0 4.3 0.00 0.00 0.00 42 870.7
20220523081653 59 176 0.0 4.3 0.00 0.00 0.00 42 870.3
20220523081147 59 157 0.0 7.0 0.00 0.00 0.00 41 870.7
20220523080640 59 155 0.0 7.0 0.00 0.00 0.00 40 870.7
20220523080135 59 132 0.0 4.3 0.00 0.00 0.00 40 870.7
20220523075631 60 152 1.7 4.3 0.00 0.00 0.00 40 871.0
20220523075125 60 154 0.0 1.7 0.00 0.00 0.00 40 871.0
20220523074619 60 134 0.0 1.7 0.00 0.00 0.00 40 871.0
20220523074111 60 163 0.0 1.7 0.00 0.00 0.00 41 870.7
20220523073605 60 150 0.0 0.0 0.00 0.00 0.00 41 871.0
20220523073100 60 135 0.0 0.0 0.00 0.00 0.00 40 871.0
20220523072551 60 160 0.0 0.0 0.00 0.00 0.00 40 871.4
20220523072046 60 186 0.0 0.0 0.00 0.00 0.00 40 871.4
20220523071539 60 148 0.0 0.0 0.00 0.00 0.00 39 871.4
20220523071034 60 155 0.0 1.7 0.00 0.00 0.00 39 871.7
20220523070531 60 143 0.0 1.7 0.00 0.00 0.00 39 871.4
20220523070023 60 148 0.0 0.0 0.00 0.00 0.00 38 871.7
20220523065516 60 180 0.0 1.7 0.00 0.00 0.00 38 871.7
20220523065010 60 156 0.0 1.7 0.00 0.00 0.00 37 871.7
20220523064503 60 160 0.0 1.7 0.00 0.00 0.00 37 871.7
20220523064000 60 149 0.0 1.7 0.00 0.00 0.00 36 871.7
20220523063453 60 171 0.0 1.7 0.00 0.00 0.00 36 872.0
20220523062943 60 149 0.9 1.7 0.00 0.00 0.00 35 872.4
20220523062439 60 179 0.0 1.7 0.00 0.00 0.00 35 872.0
20220523061932 60 138 0.0 7.0 0.00 0.00 0.00 35 872.0
20220523061426 60 157 0.0 7.0 0.00 0.00 0.00 35 872.0
20220523060916 60 179 0.0 1.7 0.00 0.00 0.00 34 872.4
20220523060411 60 155 0.0 1.7 0.00 0.00 0.00 34 872.4
20220523055905 60 163 0.0 1.7 0.00 0.00 0.00 34 872.0
20220523055400 60 217 0.0 1.7 0.00 0.00 0.00 34 872.4
20220523054854 60 134 0.0 1.7 0.00 0.00 0.00 34 872.0
20220523054351 60 143 0.0 4.3 0.00 0.00 0.00 34 872.0
20220523053842 60 164 0.0 4.3 0.00 0.00 0.00 33 872.0
20220523053339 60 157 0.0 0.0 0.00 0.00 0.00 33 872.4
20220523052833 60 159 0.0 0.0 0.00 0.00 0.00 33 872.0
20220523052326 60 145 0.0 0.0 0.00 0.00 0.00 33 872.0
20220523051818 60 143 0.0 0.0 0.00 0.00 0.00 33 872.4
20220523051311 60 136 0.0 0.0 0.00 0.00 0.00 33 872.0
20220523050805 61 148 0.0 1.7 0.00 0.00 0.00 33 872.4
20220523050300 61 170 0.0 1.7 0.00 0.00 0.00 33 872.0
20220523045755 61 151 0.0 0.0 0.00 0.00 0.00 32 872.4
20220523045249 61 160 0.0 0.0 0.00 0.00 0.00 32 872.4
20220523044742 61 109 0.0 0.0 0.00 0.00 0.00 31 872.4
20220523044235 61 141 0.0 0.0 0.00 0.00 0.00 31 872.4
20220523043729 61 147 0.0 4.3 0.00 0.00 0.00 31 872.4
20220523043225 61 158 0.0 4.3 0.00 0.00 0.00 31 872.4
20220523042719 61 167 0.0 0.0 0.00 0.00 0.00 31 872.4
20220523042212 61 137 0.0 0.0 0.00 0.00 0.00 31 872.4
20220523041712 62 162 0.0 0.0 0.00 0.00 0.00 31 872.0
20220523041200 62 191 0.0 0.0 0.00 0.00 0.00 31 872.4
20220523040655 62 130 0.0 0.0 0.00 0.00 0.00 30 872.0
20220523040150 62 136 0.0 0.0 0.00 0.00 0.00 30 872.4
20220523035642 62 160 0.0 0.0 0.00 0.00 0.00 30 872.4
20220523035140 62 151 0.0 1.7 0.00 0.00 0.00 30 872.4
20220523034631 62 177 0.0 1.7 0.00 0.00 0.00 30 872.4
20220523034129 62 148 0.0 0.0 0.00 0.00 0.00 30 872.0
20220523033621 62 157 0.0 0.0 0.00 0.00 0.00 30 872.4